This is the latest recevied weather packets stored in our database for station/object KE4AMH. If no packets are shown the sender has not sent any weather packets the latest 10 day(s).
| Time | Temp. | Humidity | Pressure | Rain* | Wind** | Luminosity | Snow |
|---|---|---|---|---|---|---|---|
| 1778009291 | 26.67° C | 41% | 1014.1 hPa | 0 mm | - | 504 W/m² | - |
| 1778008989 | 27.22° C | 40% | 1014.4 hPa | 0 mm | - | 481 W/m² | - |
| 1778008686 | 27.22° C | 40% | 1014.8 hPa | 0 mm | - | 673 W/m² | - |
| 1778008385 | 27.22° C | 42% | 1014.9 hPa | 0 mm | - | 513 W/m² | - |
| 1778008081 | 26.67° C | 41% | 1014.8 hPa | 0 mm | - | 584 W/m² | - |
| 1778007776 | 26.67° C | 40% | 1015.1 hPa | 0 mm | - | 662 W/m² | - |
| 1778007472 | 27.22° C | 41% | 1014.9 hPa | 0 mm | - | 329 W/m² | - |
| 1778007169 | 27.78° C | 41% | 1015.1 hPa | 0 mm | - | 646 W/m² | - |
| 1778006865 | 27.22° C | 40% | 1015.1 hPa | 0 mm | - | 33 W/m² | - |
| 1778006563 | 27.22° C | 39% | 1015.2 hPa | 0 mm | - | 541 W/m² | - |
| 1778006259 | 26.11° C | 40% | 1015.4 hPa | 0 mm | - | 551 W/m² | - |
| 1778005957 | 26.67° C | 41% | 1015.3 hPa | 0 mm | - | 558 W/m² | - |
| 1778005653 | 27.22° C | 40% | 1015.3 hPa | 0 mm | - | 637 W/m² | - |
| 1778005350 | 26.67° C | 41% | 1015.1 hPa | 0 mm | - | 701 W/m² | - |
| 1778005046 | 26.67° C | 40% | 1015.3 hPa | 0 mm | - | 617 W/m² | - |
| 1778004744 | 26.67° C | 42% | 1015.3 hPa | 0 mm | - | 718 W/m² | - |
| 1778004440 | 26.67° C | 39% | 1015.5 hPa | 0 mm | - | 673 W/m² | - |
| 1778004137 | 26.67° C | 39% | 1015.4 hPa | 0 mm | - | 625 W/m² | - |
| 1778003833 | 26.11° C | 41% | 1015.3 hPa | 0 mm | - | 383 W/m² | - |
| 1778003530 | 26.11° C | 40% | 1015.5 hPa | 0 mm | - | 469 W/m² | - |
| 1778003226 | 26.11° C | 41% | 1015.6 hPa | 0 mm | - | 763 W/m² | - |
| 1778002923 | 26.11° C | 42% | 1015.7 hPa | 0 mm | - | 779 W/m² | - |
| 1778002619 | 26.11° C | 40% | 1015.9 hPa | 0 mm | - | 521 W/m² | - |
| 1778002316 | 26.11° C | 41% | 1015.8 hPa | 0 mm | - | 637 W/m² | - |
| 1778002013 | 26.11° C | 43% | 1015.9 hPa | 0 mm | - | 736 W/m² | - |
* Rain latest hour (hover to see other rain measurements)
** Current wind speed in m/s (hover to see current wind gust speed)